Tiempo cada hora Barro

Hoy, 13 Mayo, Jueves

Tiempo Temperatura Precipitaciones Viento Presión Humedad
00:00 +25°C° 0 mm 2 mps 736 mmHg 81%
01:00 +25°C° 0 mm 2 mps 735 mmHg 82%
02:00 +24°C° 0 mm 2 mps 735 mmHg 84%
03:00 +24°C° 0 mm 2 mps 735 mmHg 85%
04:00 +24°C° 0 mm 2 mps 735 mmHg 86%
05:00 +23°C° 0 mm 2 mps 736 mmHg 87%
06:00 +23°C° 0 mm 2 mps 736 mmHg 88%
07:00 +25°C° 0 mm 2 mps 736 mmHg 78%
08:00 +28°C° 0 mm 3 mps 737 mmHg 67%
09:00 +30°C° 0 mm 3 mps 737 mmHg 56%
10:00 +31°C° 0 mm 3 mps 736 mmHg 52%
11:00 +33°C° 0 mm 3 mps 736 mmHg 47%
12:00 +35°C° 0 mm 3 mps 735 mmHg 43%
13:00 +34°C° 0 mm 2 mps 735 mmHg 45%
14:00 +32°C° 0 mm 2 mps 734 mmHg 47%
15:00 +32°C° 0 mm 2 mps 734 mmHg 49%
16:00 +31°C° 0 mm 2 mps 734 mmHg 53%
17:00 +30°C° 0 mm 1 mps 735 mmHg 57%
18:00 +29°C° 0 mm 1 mps 735 mmHg 60%
19:00 +28°C° 0 mm 1 mps 735 mmHg 65%
20:00 +27°C° 0 mm 2 mps 736 mmHg 69%
21:00 +27°C° 0 mm 2 mps 736 mmHg 74%
22:00 +26°C° 0 mm 2 mps 736 mmHg 79%
23:00 +25°C° 0 mm 1 mps 736 mmHg 84%

Mañana, 14 Mayo, Viernes

Tiempo Temperatura Precipitaciones Viento Presión Humedad
00:00 +24°C° 0 mm 1 mps 736 mmHg 89%
01:00 +24°C° 0 mm 1 mps 735 mmHg 91%
02:00 +23°C° 0 mm 1 mps 735 mmHg 93%
03:00 +23°C° 0 mm 1 mps 734 mmHg 94%
04:00 +23°C° 0 mm 1 mps 735 mmHg 94%
05:00 +23°C° 0 mm 1 mps 735 mmHg 93%
06:00 +23°C° 0 mm 1 mps 735 mmHg 92%
07:00 +25°C° 0 mm 1 mps 736 mmHg 83%
08:00 +27°C° 0 mm 2 mps 736 mmHg 73%
09:00 +29°C° 0 mm 2 mps 737 mmHg 63%
10:00 +30°C° 0 mm 2 mps 736 mmHg 57%
11:00 +32°C° 0 mm 2 mps 736 mmHg 52%
12:00 +34°C° 0 mm 2 mps 735 mmHg 47%
13:00 +32°C° 0.1 mm 2 mps 735 mmHg 50%
14:00 +32°C° 0.1 mm 2 mps 734 mmHg 52%
15:00 +31°C° 0.1 mm 2 mps 734 mmHg 55%
16:00 +29°C° 0.4 mm 2 mps 734 mmHg 67%
17:00 +27°C° 0.4 mm 1 mps 734 mmHg 78%
18:00 +25°C° 0.4 mm 1 mps 734 mmHg 90%
19:00 +25°C° 1.2 mm 1 mps 735 mmHg 92%
20:00 +24°C° 1.2 mm 1 mps 736 mmHg 95%
21:00 +24°C° 1.2 mm 2 mps 736 mmHg 97%
22:00 +24°C° 1.3 mm 1 mps 736 mmHg 97%
23:00 +24°C° 1.3 mm 1 mps 736 mmHg 98%

Pasado mañana, 15 Mayo, Sábado

Tiempo Temperatura Precipitaciones Viento Presión Humedad
00:00 +24°C° 1.3 mm 1 mps 736 mmHg 98%
01:00 +23°C° 0.4 mm 1 mps 736 mmHg 98%
02:00 +23°C° 0.4 mm 1 mps 736 mmHg 97%
03:00 +23°C° 0.4 mm 1 mps 735 mmHg 97%
04:00 +23°C° 0 mm 1 mps 736 mmHg 97%
05:00 +23°C° 0 mm 1 mps 736 mmHg 97%
06:00 +23°C° 0 mm 2 mps 736 mmHg 97%
07:00 +25°C° 0 mm 2 mps 737 mmHg 85%
08:00 +27°C° 0 mm 3 mps 737 mmHg 74%
09:00 +29°C° 0 mm 3 mps 737 mmHg 63%
10:00 +30°C° 0 mm 3 mps 737 mmHg 55%
11:00 +33°C° 0 mm 4 mps 736 mmHg 48%
12:00 +35°C° 0 mm 4 mps 735 mmHg 41%
13:00 +34°C° 0 mm 3 mps 735 mmHg 43%
14:00 +34°C° 0 mm 3 mps 734 mmHg 45%
15:00 +33°C° 0 mm 3 mps 734 mmHg 47%
16:00 +31°C° 0 mm 2 mps 734 mmHg 51%
17:00 +30°C° 0 mm 1 mps 734 mmHg 55%
18:00 +28°C° 0 mm 1 mps 735 mmHg 60%
19:00 +28°C° 0 mm 1 mps 735 mmHg 65%
20:00 +27°C° 0 mm 1 mps 736 mmHg 70%
21:00 +26°C° 0 mm 2 mps 736 mmHg 75%
22:00 +25°C° 0.1 mm 2 mps 736 mmHg 79%
23:00 +25°C° 0.1 mm 2 mps 736 mmHg 82%

16 Mayo, Domingo

Tiempo Temperatura Precipitaciones Viento Presión Humedad
00:00 +25°C° 0.1 mm 2 mps 736 mmHg 85%
01:00 +24°C° 0.1 mm 1 mps 736 mmHg 86%
02:00 +24°C° 0.1 mm 1 mps 736 mmHg 87%
03:00 +24°C° 0.1 mm 1 mps 735 mmHg 88%
04:00 +24°C° 0 mm 1 mps 736 mmHg 88%
05:00 +24°C° 0 mm 1 mps 736 mmHg 88%
06:00 +23°C° 0 mm 1 mps 736 mmHg 88%
07:00 +25°C° 0 mm 2 mps 737 mmHg 76%
08:00 +27°C° 0 mm 2 mps 737 mmHg 65%
09:00 +29°C° 0 mm 3 mps 737 mmHg 53%
10:00 +31°C° 0 mm 3 mps 737 mmHg 47%
11:00 +34°C° 0 mm 3 mps 736 mmHg 41%
12:00 +35°C° 0 mm 3 mps 736 mmHg 35%
13:00 +35°C° 0 mm 3 mps 735 mmHg 34%
14:00 +36°C° 0 mm 3 mps 734 mmHg 33%
15:00 +36°C° 0 mm 3 mps 734 mmHg 32%
16:00 +34°C° 0 mm 2 mps 734 mmHg 40%
17:00 +30°C° 0 mm 2 mps 734 mmHg 48%
18:00 +28°C° 0 mm 1 mps 734 mmHg 55%
19:00 +28°C° 0 mm 1 mps 735 mmHg 58%
20:00 +27°C° 0 mm 1 mps 736 mmHg 60%
21:00 +27°C° 0 mm 2 mps 736 mmHg 62%
22:00 +26°C° 0 mm 2 mps 736 mmHg 63%
23:00 +26°C° 0 mm 2 mps 736 mmHg 65%

17 Mayo, Lunes

Tiempo Temperatura Precipitaciones Viento Presión Humedad
00:00 +26°C° 0 mm 2 mps 736 mmHg 66%
01:00 +25°C° 0 mm 2 mps 736 mmHg 70%
02:00 +24°C° 0 mm 2 mps 736 mmHg 73%
03:00 +23°C° 0 mm 2 mps 735 mmHg 77%
04:00 +23°C° 0 mm 1 mps 736 mmHg 81%
05:00 +22°C° 0 mm 1 mps 736 mmHg 84%
06:00 +22°C° 0 mm 1 mps 736 mmHg 88%
07:00 +24°C° 0 mm 2 mps 737 mmHg 75%
08:00 +27°C° 0 mm 2 mps 737 mmHg 63%
09:00 +29°C° 0 mm 2 mps 737 mmHg 50%
10:00 +31°C° 0 mm 2 mps 737 mmHg 46%
11:00 +34°C° 0 mm 2 mps 736 mmHg 41%
12:00 +35°C° 0 mm 2 mps 736 mmHg 37%
13:00 +36°C° 0 mm 2 mps 735 mmHg 36%
14:00 +36°C° 0 mm 2 mps 734 mmHg 35%
15:00 +36°C° 0 mm 3 mps 734 mmHg 35%
16:00 +34°C° 0 mm 2 mps 734 mmHg 42%
17:00 +30°C° 0 mm 2 mps 734 mmHg 49%
18:00 +28°C° 0 mm 1 mps 735 mmHg 56%
19:00 +28°C° 0 mm 1 mps 735 mmHg 57%
20:00 +27°C° 0 mm 1 mps 735 mmHg 58%
21:00 +27°C° 0 mm 1 mps 736 mmHg 60%
22:00 +27°C° 0 mm 1 mps 736 mmHg 61%
23:00 +27°C° 0 mm 1 mps 736 mmHg 63%

18 Mayo, Martes

Tiempo Temperatura Precipitaciones Viento Presión Humedad
00:00 +27°C° 0 mm 1 mps 736 mmHg 64%
01:00 +26°C° 0 mm 1 mps 736 mmHg 69%
02:00 +25°C° 0 mm 1 mps 736 mmHg 74%
03:00 +24°C° 0 mm 1 mps 735 mmHg 79%
04:00 +24°C° 0 mm 1 mps 736 mmHg 79%
05:00 +24°C° 0 mm 1 mps 736 mmHg 79%
06:00 +24°C° 0 mm 1 mps 736 mmHg 80%
07:00 +26°C° 0 mm 1 mps 737 mmHg 71%
08:00 +29°C° 0 mm 1 mps 737 mmHg 62%
09:00 +31°C° 0 mm 2 mps 737 mmHg 54%
10:00 +32°C° 0 mm 2 mps 737 mmHg 49%
11:00 +34°C° 0 mm 2 mps 736 mmHg 44%
12:00 +36°C° 0 mm 2 mps 736 mmHg 39%
13:00 +35°C° 0 mm 2 mps 735 mmHg 41%
14:00 +35°C° 0 mm 2 mps 735 mmHg 43%
15:00 +34°C° 0 mm 2 mps 734 mmHg 45%
16:00 +32°C° 0 mm 2 mps 734 mmHg 51%
17:00 +30°C° 0 mm 1 mps 735 mmHg 56%
18:00 +29°C° 0 mm 1 mps 735 mmHg 62%
19:00 +28°C° 0 mm 1 mps 736 mmHg 64%
20:00 +28°C° 0 mm 1 mps 736 mmHg 66%
21:00 +25°C° 0 mm 0 mps 737 mmHg 68%
22:00 +25°C° 0 mm 0 mps 737 mmHg 70%
23:00 +26°C° 0 mm 1 mps 737 mmHg 73%
Mostrar más

Necesitamos Su Consentimiento

Meteoprog y nuestros Proveedores de Servicios pueden almacenar y acceder a sus datos personales como cookies, identificadores de dispositivo u otras tecnologías similares de su dispositivo y procesar dichos datos para personalizar contenido y anuncios, además de ofrecer funciones de redes sociales y analizar el tráfico.

  • Almacenar y/o acceder a información en su dispositivo

    Se puede almacenar o acceder a cookies, identificadores de dispositivo u otra información de su dispositivo para los fines anteriormente indicados.

  • Anuncios y contenido personalizados, medición de anuncios y contenido, percepciones del público, y desarrollo de productos

    Los anuncios y el contenido pueden personalizarse en base a su perfil. Se pueden añadir más datos para personalizar mejor los anuncios y contenidos. Se puede medir el rendimiento de los anuncios y contenidos. Se puede obtener la percepción sobre el público que ha visto los anuncios y contenidos. Dichos datos pueden usarse para desarrollar o mejorar la experiencia del usuario, sistemas y software.

Al hacer clic en ‘Estoy De Acuerdo’ usted permitirá el uso de las cookies, identificadores de dispositivo, balizas web u otras tecnologías similares indicadas. Su configuración puede cambiarse desde el navegador de su dispositivo.

Para ciertos fines, los intereses legítimos pueden ser considerados por encima del consentimiento. Puede leer más sobre ello en nuestra Política de Privacidad y Cookies.